Medicine Hat, Alberta

1:21 AM MDT on April 27, 2018 (GMT -0600)
Medicine Hat

Weather History for CYXH - January, 2014

Change the Weather History Date:

Wednesday, January 29, 2014

  Actual Average Record
Temperature  
Mean Temperature 17 °F -  
Max Temperature 24 °F 30 °F 57 °F (2017)
Min Temperature 10 °F 9 °F -38 °F (2013)
Degree Days  
Heating Degree Days 48    
Moisture  
Dew Point 13 °F    
Average Humidity 88    
Maximum Humidity 93    
Minimum Humidity 80    
Precipitation  
Precipitation 0.00 in 0.01 in - ()
Sea Level Pressure  
Sea Level Pressure 29.84 in    
Wind  
Wind Speed 8 mph ()    
Max Wind Speed 16 mph    
Max Gust Speed 22 mph    
Visibility 5.1 miles    
Events Snow    
Averages and records for this station are not official NWS values.
T = Trace of Precipitation, MM = Missing Value Source: Averaged Metar Reports

Daily Weather History Graph

Daily Weather History Graph

Search for Another Location

Airport or City:

Astronomy

Jan. 29, 2014 Rise Set
Actual Time 8:00 AM MST 5:12 PM MST
Civil Twilight 7:25 AM MST 5:47 PM MST
Nautical Twilight 6:46 AM MST 6:26 PM MST
Astronomical Twilight 6:08 AM MST 7:04 PM MST
Moon 6:40 AM MST (1/29) 4:16 PM MST (1/29)
Length of Visible Light 10h 22m
Length of Day
9h 11m
Waning Crescent, 2% of the Moon is Illuminated
Jan 29
Waning Crescent
Jan 30
New
Feb 6
First Quarter
Feb 14
Full
Feb 22
Last Quarter

Hourly Weather History & Observations

Time (MST) Temp. Windchill Dew Point Humidity Pressure Visibility Wind Dir Wind Speed Gust Speed Precip Events Conditions
12:00 AM 24.8 °F 14.6 °F 21.2 °F 86% 29.81 in 9.0 mi SW 10.4 mph - N/A   Clear
1:00 AM 23.0 °F 12.4 °F 21.2 °F 93% 29.81 in 9.0 mi SW 10.4 mph - N/A   Clear
2:00 AM 19.4 °F 11.5 °F 17.6 °F 93% 29.82 in 9.0 mi SW 5.8 mph - N/A   Clear
3:00 AM 19.4 °F 9.5 °F 17.6 °F 93% 29.83 in 9.0 mi SW 8.1 mph - N/A   Clear
4:00 AM 17.6 °F 9.3 °F 15.8 °F 93% 29.84 in 9.0 mi WSW 5.8 mph - N/A   Clear
5:00 AM 21.2 °F 10.1 °F 15.8 °F 80% 29.85 in 9.0 mi WNW 10.4 mph - N/A   Scattered Clouds
6:00 AM 19.4 °F 14.3 °F 15.8 °F 86% 29.84 in 15.0 mi WSW 3.5 mph - N/A   Overcast
7:00 AM 19.4 °F - 15.8 °F 86% 29.83 in 15.0 mi Variable 2.3 mph - N/A   Overcast
8:00 AM 21.2 °F 12.6 °F 15.8 °F 80% 29.82 in 30.0 mi WNW 6.9 mph - N/A   Overcast
8:26 AM 19.4 °F 11.5 °F 15.8 °F 86% 29.81 in 30.0 mi North 5.8 mph - N/A   Light Small Hail Showers
9:00 AM 19.4 °F 8.6 °F 15.8 °F 86% 29.79 in 30.0 mi North 9.2 mph - N/A   Mostly Cloudy
10:00 AM 19.4 °F 10.4 °F 15.8 °F 86% 29.78 in 30.0 mi NNE 6.9 mph - N/A   Overcast
11:00 AM 19.4 °F 12.8 °F 15.8 °F 86% 29.78 in 30.0 mi NE 4.6 mph - N/A   Overcast
11:55 AM 19.4 °F 8.6 °F 15.8 °F 86% 29.75 in 10.0 mi North 9.2 mph - N/A Snow Light Snow
12:00 PM 19.4 °F 9.5 °F 15.8 °F 86% 29.75 in 10.0 mi North 8.1 mph - N/A Snow Light Snow
12:07 PM 19.4 °F 7.9 °F 15.8 °F 86% 29.74 in 3.0 mi North 10.4 mph - N/A Snow Light Snow
12:50 PM 19.4 °F 10.4 °F 15.8 °F 86% 29.74 in 1.0 mi North 6.9 mph - N/A Snow Light Snow
1:00 PM 19.4 °F 10.4 °F 15.8 °F 86% 29.74 in 0.8 mi North 6.9 mph - N/A Snow Light Snow
2:00 PM 17.6 °F 8.2 °F 15.8 °F 93% 29.73 in 0.8 mi North 6.9 mph - N/A Snow Light Snow
3:00 PM 17.6 °F 8.2 °F 15.8 °F 93% 29.72 in 0.8 mi North 6.9 mph - N/A Snow Light Snow
4:00 PM 17.6 °F 7.3 °F 15.8 °F 93% 29.74 in 0.8 mi NNE 8.1 mph - N/A Snow Light Snow
5:00 PM 15.8 °F 4.2 °F 14.0 °F 93% 29.75 in 1.0 mi North 9.2 mph - N/A Snow Light Snow
5:31 PM 15.8 °F 4.2 °F 14.0 °F 93% 29.77 in 4.0 mi North 9.2 mph - N/A Snow Light Snow
6:00 PM 15.8 °F 4.2 °F 14.0 °F 93% 29.79 in 4.0 mi North 9.2 mph - N/A Snow Light Snow
7:00 PM 15.8 °F 3.4 °F 12.2 °F 86% 29.82 in 6.0 mi North 10.4 mph - N/A Snow Light Snow
8:00 PM 14.0 °F 1.2 °F 10.4 °F 86% 29.86 in 6.0 mi North 10.4 mph - N/A Snow Light Snow
9:00 PM 12.2 °F -1.8 °F 10.4 °F 92% 29.90 in 3.0 mi North 11.5 mph - N/A Snow Light Snow
9:16 PM 12.2 °F 0.7 °F 10.4 °F 92% 29.91 in 2.2 mi North 8.1 mph - N/A Snow Light Snow
9:21 PM 12.2 °F -0.2 °F 10.4 °F 92% 29.91 in 2.0 mi North 9.2 mph - N/A Snow Light Snow
9:37 PM 12.2 °F -2.5 °F 10.4 °F 92% 29.92 in 2.2 mi North 12.7 mph - N/A Snow Light Snow
9:41 PM 12.2 °F -1.0 °F 10.4 °F 92% 29.92 in 3.0 mi North 10.4 mph - N/A Snow Light Snow
10:00 PM 12.2 °F -1.8 °F 8.6 °F 85% 29.93 in 3.0 mi North 11.5 mph - N/A Snow Light Snow
10:48 PM 10.4 °F -2.4 °F 8.6 °F 92% 29.96 in 6.0 mi North 9.2 mph - N/A Snow Light Snow
10:59 PM 12.2 °F -1.8 °F 8.6 °F 85% 29.97 in 5.0 mi North 11.5 mph - N/A Snow Light Snow
11:00 PM 12.2 °F -1.8 °F 8.6 °F 85% 29.97 in 5.0 mi North 11.5 mph - N/A Snow Light Snow
11:02 PM 12.2 °F -2.5 °F 8.6 °F 85% 29.97 in 4.0 mi North 12.7 mph - N/A Snow Light Snow
11:37 PM 10.4 °F -6.6 °F 6.8 °F 85% 29.99 in 3.0 mi North 16.1 mph 21.9 mph N/A Snow Light Snow
11:52 PM 10.4 °F -6.0 °F 6.8 °F 85% 29.99 in 2.2 mi North 15.0 mph 20.7 mph N/A Snow Light Snow
11:53 PM 10.4 °F -6.6 °F 6.8 °F 85% 29.99 in 2.0 mi North 16.1 mph - N/A Snow Light Snow